Time,TemperatureF,DewpointF,PressureIn,WindDirection,WindDirectionDegrees,WindSpeedMPH,WindSpeedGustMPH,Humidity,HourlyPrecipIn,Conditions,Clouds,dailyrainin,SoftwareType,DateUTC
2013-04-25 00:06:00,66.4,60.7,29.88,NNW,337,1.7,-999.0,82,-99.99,,,0.00,Acu-Link.com,2013-04-25 04:06:00,
2013-04-25 00:22:00,66.2,60.9,29.88,West,270,0.0,-999.0,83,-99.99,,,0.00,Acu-Link.com,2013-04-25 04:22:00,
2013-04-25 00:37:00,66.2,60.9,29.89,WNW,292,1.7,-999.0,83,-99.99,,,0.00,Acu-Link.com,2013-04-25 04:37:00,
2013-04-25 00:52:00,65.8,61.2,29.89,WSW,247,1.7,-999.0,85,-99.99,,,0.00,Acu-Link.com,2013-04-25 04:52:00,
2013-04-25 01:07:00,65.5,61.2,29.89,NE,45,1.1,-999.0,86,-99.99,,,0.00,Acu-Link.com,2013-04-25 05:07:00,
2013-04-25 01:23:00,64.9,60.9,29.89,ENE,67,1.7,-999.0,87,-99.99,,,0.00,Acu-Link.com,2013-04-25 05:23:00,
2013-04-25 01:38:00,64.6,61.0,29.89,NNE,22,1.1,-999.0,88,-99.99,,,0.00,Acu-Link.com,2013-04-25 05:38:00,
2013-04-25 01:53:00,64.2,60.9,29.89,WNW,292,0.0,-999.0,89,-99.99,,,0.00,Acu-Link.com,2013-04-25 05:53:00,
2013-04-25 02:09:00,63.7,60.7,29.89,WSW,247,0.0,-999.0,90,-99.99,,,0.00,Acu-Link.com,2013-04-25 06:09:00,
2013-04-25 02:24:00,63.3,60.9,29.90,NE,45,1.1,-999.0,92,-99.99,,,0.00,Acu-Link.com,2013-04-25 06:24:00,
2013-04-25 02:39:00,63.3,60.9,29.90,West,270,2.2,-999.0,92,-99.99,,,0.00,Acu-Link.com,2013-04-25 06:39:00,
2013-04-25 02:54:00,63.3,60.9,29.90,East,90,0.0,-999.0,92,-99.99,,,0.00,Acu-Link.com,2013-04-25 06:54:00,
2013-04-25 03:09:00,63.5,61.1,29.91,West,270,1.7,-999.0,92,-99.99,,,0.00,Acu-Link.com,2013-04-25 07:09:00,
2013-04-25 03:25:00,63.3,60.9,29.92,East,90,2.2,-999.0,92,-99.99,,,0.00,Acu-Link.com,2013-04-25 07:25:00,
2013-04-25 03:40:00,63.0,57.8,29.93,WNW,292,3.2,-999.0,83,-99.99,,,0.00,Acu-Link.com,2013-04-25 07:40:00,
2013-04-25 03:55:00,62.4,56.5,29.94,WNW,292,2.7,-999.0,81,-99.99,,,0.00,Acu-Link.com,2013-04-25 07:55:00,
2013-04-25 04:10:00,62.2,56.0,29.95,West,270,1.1,-999.0,80,-99.99,,,0.00,Acu-Link.com,2013-04-25 08:10:00,
2013-04-25 04:25:00,61.9,55.3,29.96,West,270,1.1,-999.0,79,-99.99,,,0.00,Acu-Link.com,2013-04-25 08:25:00,
2013-04-25 04:41:00,61.3,55.4,29.96,WNW,292,2.7,-999.0,81,-99.99,,,0.00,Acu-Link.com,2013-04-25 08:41:00,
2013-04-25 04:56:00,60.8,55.3,29.97,WNW,292,1.7,-999.0,82,-99.99,,,0.00,Acu-Link.com,2013-04-25 08:56:00,
2013-04-25 05:11:00,60.4,54.5,29.99,WNW,292,2.2,-999.0,81,-99.99,,,0.00,Acu-Link.com,2013-04-25 09:11:00,
2013-04-25 05:26:00,59.7,52.8,30.00,NW,315,1.7,-999.0,78,-99.99,,,0.00,Acu-Link.com,2013-04-25 09:26:00,
2013-04-25 05:42:00,59.2,52.0,30.02,SSE,157,1.1,-999.0,77,-99.99,,,0.00,Acu-Link.com,2013-04-25 09:42:00,
2013-04-25 05:57:00,58.5,51.3,30.03,WNW,292,4.7,-999.0,77,-99.99,,,0.00,Acu-Link.com,2013-04-25 09:57:00,
2013-04-25 06:12:00,57.6,50.1,30.04,WNW,292,2.7,-999.0,76,-99.99,,,0.00,Acu-Link.com,2013-04-25 10:12:00,
2013-04-25 06:27:00,56.8,48.6,30.04,West,270,4.7,-999.0,74,-99.99,,,0.00,Acu-Link.com,2013-04-25 10:27:00,
2013-04-25 06:43:00,56.3,49.2,30.05,SW,225,2.7,-999.0,77,-99.99,,,0.00,Acu-Link.com,2013-04-25 10:43:00,
2013-04-25 06:58:00,55.8,48.7,30.06,West,270,4.2,-999.0,77,-99.99,,,0.00,Acu-Link.com,2013-04-25 10:58:00,
2013-04-25 07:13:00,55.6,48.8,30.07,West,270,4.2,-999.0,78,-99.99,,,0.00,Acu-Link.com,2013-04-25 11:13:00,
2013-04-25 07:29:00,55.2,48.1,30.09,WNW,292,1.1,-999.0,77,-99.99,,,0.00,Acu-Link.com,2013-04-25 11:29:00,
2013-04-25 07:44:00,54.9,47.8,30.09,NW,315,3.7,-999.0,77,-99.99,,,0.00,Acu-Link.com,2013-04-25 11:44:00,
2013-04-25 07:59:00,54.3,46.9,30.10,West,270,2.7,-999.0,76,-99.99,,,0.00,Acu-Link.com,2013-04-25 11:59:00,
2013-04-25 08:15:00,54.0,45.9,30.11,SE,135,0.0,-999.0,74,-99.99,,,0.00,Acu-Link.com,2013-04-25 12:15:00,
2013-04-25 08:30:00,53.8,45.7,30.10,West,270,0.0,-999.0,74,-99.99,,,0.00,Acu-Link.com,2013-04-25 12:30:00,
2013-04-25 08:45:00,54.0,45.5,30.10,North,0,1.7,-999.0,73,-99.99,,,0.00,Acu-Link.com,2013-04-25 12:45:00,
2013-04-25 09:00:00,54.0,44.8,30.11,WNW,292,1.7,-999.0,71,-99.99,,,0.00,Acu-Link.com,2013-04-25 13:00:00,
2013-04-25 09:15:00,54.7,46.2,30.11,East,90,2.2,-999.0,73,-99.99,,,0.00,Acu-Link.com,2013-04-25 13:15:00,
2013-04-25 09:30:00,55.4,46.5,30.11,WSW,247,0.0,-999.0,72,-99.99,,,0.00,Acu-Link.com,2013-04-25 13:30:00,
2013-04-25 09:46:00,55.4,45.8,30.12,West,270,2.2,-999.0,70,-99.99,,,0.00,Acu-Link.com,2013-04-25 13:46:00,
2013-04-25 10:01:00,55.9,46.6,30.12,ESE,112,1.7,-999.0,71,-99.99,,,0.00,Acu-Link.com,2013-04-25 14:01:00,
2013-04-25 10:16:00,55.6,46.3,30.12,West,270,2.2,-999.0,71,-99.99,,,0.00,Acu-Link.com,2013-04-25 14:16:00,
2013-04-25 10:32:00,57.4,47.7,30.12,WNW,292,0.0,-999.0,70,-99.99,,,0.00,Acu-Link.com,2013-04-25 14:32:00,
2013-04-25 10:47:00,59.9,48.9,30.12,WNW,292,2.7,-999.0,67,-99.99,,,0.00,Acu-Link.com,2013-04-25 14:47:00,
2013-04-25 11:02:00,61.3,49.0,30.12,NE,45,1.7,-999.0,64,-99.99,,,0.00,Acu-Link.com,2013-04-25 15:02:00,
2013-04-25 11:17:00,62.1,49.4,30.12,South,180,2.2,-999.0,63,-99.99,,,0.00,Acu-Link.com,2013-04-25 15:17:00,
2013-04-25 11:32:00,61.9,49.6,30.11,ESE,112,2.2,-999.0,64,-99.99,,,0.00,Acu-Link.com,2013-04-25 15:32:00,
2013-04-25 11:48:00,63.0,51.0,30.11,East,90,1.1,-999.0,65,-99.99,,,0.00,Acu-Link.com,2013-04-25 15:48:00,
2013-04-25 12:03:00,64.6,50.8,30.11,SSW,202,1.1,-999.0,61,-99.99,,,0.00,Acu-Link.com,2013-04-25 16:03:00,
2013-04-25 12:18:00,66.2,51.9,30.11,SSW,202,3.2,-999.0,60,-99.99,,,0.00,Acu-Link.com,2013-04-25 16:18:00,
2013-04-25 12:34:00,66.4,52.1,30.11,SE,135,2.2,-999.0,60,-99.99,,,0.00,Acu-Link.com,2013-04-25 16:34:00,
2013-04-25 12:49:00,67.5,52.7,30.11,NW,315,1.7,-999.0,59,-99.99,,,0.00,Acu-Link.com,2013-04-25 16:49:00,
2013-04-25 13:04:00,66.4,52.1,30.10,West,270,2.2,-999.0,60,-99.99,,,0.00,Acu-Link.com,2013-04-25 17:04:00,
2013-04-25 13:19:00,65.7,52.8,30.11,West,270,1.7,-999.0,63,-99.99,,,0.00,Acu-Link.com,2013-04-25 17:19:00,
2013-04-25 13:35:00,68.2,53.8,30.11,SW,225,1.7,-999.0,60,-99.99,,,0.00,Acu-Link.com,2013-04-25 17:35:00,
2013-04-25 13:50:00,68.5,53.6,30.11,SE,135,2.2,-999.0,59,-99.99,,,0.00,Acu-Link.com,2013-04-25 17:50:00,
2013-04-25 14:05:00,67.8,52.9,30.11,ENE,67,1.7,-999.0,59,-99.99,,,0.00,Acu-Link.com,2013-04-25 18:05:00,
2013-04-25 14:20:00,72.9,52.6,30.10,WNW,292,1.7,-999.0,49,-99.99,,,0.00,Acu-Link.com,2013-04-25 18:20:00,
2013-04-25 14:36:00,72.5,52.2,30.10,WNW,292,1.1,-999.0,49,-99.99,,,0.00,Acu-Link.com,2013-04-25 18:36:00,
2013-04-25 14:51:00,71.8,52.7,30.10,NNE,22,1.7,-999.0,51,-99.99,,,0.00,Acu-Link.com,2013-04-25 18:51:00,
2013-04-25 15:06:00,70.9,53.4,30.10,West,270,2.2,-999.0,54,-99.99,,,0.00,Acu-Link.com,2013-04-25 19:06:00,
2013-04-25 15:21:00,71.4,52.8,30.08,NE,45,0.0,-999.0,52,-99.99,,,0.00,Acu-Link.com,2013-04-25 19:21:00,
2013-04-25 15:37:00,71.8,54.8,30.08,ESE,112,0.0,-999.0,55,-99.99,,,0.00,Acu-Link.com,2013-04-25 19:37:00,
2013-04-25 15:52:00,71.2,51.6,30.07,East,90,0.0,-999.0,50,-99.99,,,0.00,Acu-Link.com,2013-04-25 19:52:00,
2013-04-25 16:07:00,70.7,49.5,30.07,ESE,112,2.7,-999.0,47,-99.99,,,0.00,Acu-Link.com,2013-04-25 20:07:00,
2013-04-25 16:22:00,71.1,51.5,30.07,NW,315,1.7,-999.0,50,-99.99,,,0.00,Acu-Link.com,2013-04-25 20:22:00,
2013-04-25 16:38:00,71.6,51.4,30.07,East,90,1.1,-999.0,49,-99.99,,,0.00,Acu-Link.com,2013-04-25 20:38:00,
2013-04-25 16:53:00,71.8,51.6,30.06,ESE,112,3.2,-999.0,49,-99.99,,,0.00,Acu-Link.com,2013-04-25 20:53:00,
2013-04-25 17:08:00,71.2,49.9,30.06,ENE,67,1.7,-999.0,47,-99.99,,,0.00,Acu-Link.com,2013-04-25 21:08:00,
2013-04-25 17:24:00,71.8,50.5,30.06,NNE,22,1.1,-999.0,47,-99.99,,,0.00,Acu-Link.com,2013-04-25 21:24:00,
2013-04-25 17:39:00,72.0,49.5,30.06,NW,315,2.2,-999.0,45,-99.99,,,0.00,Acu-Link.com,2013-04-25 21:39:00,
2013-04-25 17:55:00,71.6,50.3,30.05,ESE,112,1.1,-999.0,47,-99.99,,,0.00,Acu-Link.com,2013-04-25 21:55:00,
2013-04-25 18:10:00,71.8,49.9,30.05,East,90,1.1,-999.0,46,-99.99,,,0.00,Acu-Link.com,2013-04-25 22:10:00,
2013-04-25 18:25:00,72.7,49.5,30.05,East,90,0.0,-999.0,44,-99.99,,,0.00,Acu-Link.com,2013-04-25 22:25:00,
2013-04-25 18:40:00,71.1,49.8,30.05,North,0,0.0,-999.0,47,-99.99,,,0.00,Acu-Link.com,2013-04-25 22:40:00,
2013-04-25 18:56:00,69.8,50.3,30.05,East,90,0.0,-999.0,50,-99.99,,,0.00,Acu-Link.com,2013-04-25 22:56:00,
2013-04-25 19:11:00,68.2,49.9,30.06,East,90,0.0,-999.0,52,-99.99,,,0.00,Acu-Link.com,2013-04-25 23:11:00,
2013-04-25 19:27:00,66.9,51.6,30.07,East,90,0.0,-999.0,58,-99.99,,,0.00,Acu-Link.com,2013-04-25 23:27:00,
2013-04-25 19:42:00,65.1,52.2,30.08,East,90,0.0,-999.0,63,-99.99,,,0.00,Acu-Link.com,2013-04-25 23:42:00,
2013-04-25 19:58:00,63.3,53.0,30.08,ESE,112,0.0,-999.0,69,-99.99,,,0.00,Acu-Link.com,2013-04-25 23:58:00,
2013-04-25 20:13:00,61.3,52.2,30.08,ESE,112,0.0,-999.0,72,-99.99,,,0.00,Acu-Link.com,2013-04-26 00:13:00,
2013-04-25 20:28:00,59.7,52.1,30.09,ESE,112,0.0,-999.0,76,-99.99,,,0.00,Acu-Link.com,2013-04-26 00:28:00,
2013-04-25 20:43:00,58.3,52.2,30.09,ESE,112,0.0,-999.0,80,-99.99,,,0.00,Acu-Link.com,2013-04-26 00:43:00,
2013-04-25 20:59:00,57.2,51.4,30.10,ESE,112,0.0,-999.0,81,-99.99,,,0.00,Acu-Link.com,2013-04-26 00:59:00,
2013-04-25 21:14:00,56.3,51.8,30.11,ESE,112,0.0,-999.0,85,-99.99,,,0.00,Acu-Link.com,2013-04-26 01:14:00,
2013-04-25 21:30:00,55.8,52.3,30.12,NE,45,0.0,-999.0,88,-99.99,,,0.00,Acu-Link.com,2013-04-26 01:30:00,
2013-04-25 21:45:00,55.0,51.8,30.13,ESE,112,0.0,-999.0,89,-99.99,,,0.00,Acu-Link.com,2013-04-26 01:45:00,
2013-04-25 22:00:00,54.3,51.4,30.14,ESE,112,1.1,-999.0,90,-99.99,,,0.00,Acu-Link.com,2013-04-26 02:00:00,
2013-04-25 22:16:00,54.0,50.2,30.13,ESE,112,0.0,-999.0,87,-99.99,,,0.00,Acu-Link.com,2013-04-26 02:16:00,
2013-04-25 22:31:00,53.6,50.4,30.14,ESE,112,0.0,-999.0,89,-99.99,,,0.00,Acu-Link.com,2013-04-26 02:31:00,
2013-04-25 22:46:00,53.1,50.8,30.14,North,0,0.0,-999.0,92,-99.99,,,0.00,Acu-Link.com,2013-04-26 02:46:00,
2013-04-25 23:02:00,52.3,50.6,30.14,ESE,112,1.7,-999.0,94,-99.99,,,0.00,Acu-Link.com,2013-04-26 03:02:00,
2013-04-25 23:17:00,52.3,50.3,30.14,SE,135,0.0,-999.0,93,-99.99,,,0.00,Acu-Link.com,2013-04-26 03:17:00,
2013-04-25 23:32:00,52.2,51.1,30.14,East,90,0.0,-999.0,96,-99.99,,,0.00,Acu-Link.com,2013-04-26 03:32:00,
2013-04-25 23:48:00,52.2,51.7,30.15,ESE,112,0.0,-999.0,98,-99.99,,,0.00,Acu-Link.com,2013-04-26 03:48:00,